Location: Writing-on-Stone Provincial Park
(49.0825°N, 111.6163°W)
Time: 03:44:09
(UTC-06:00)

Amateur Radio Satellites - All Passes

Search period start: 02 April 2015 03:14
Search period end: 03 April 2015 03:14
Location: Writing-on-Stone Provincial Park, 49.0825°N, 111.6163°W

Satellite Date Start Highest point End Downlink Frequencies (MHz)
Time Altitude Azimuth
STARS 02 Apr 03:18:45 03:23:05 64° 72° (ENE) 03:27:27 437.465
MOZHAYETS 4 02 Apr 03:27:17 03:28:27 11° 55° (NE) 03:29:51
AIST 1 02 Apr 03:47:41 03:51:09 24° 88° (E) 03:54:41
SWISSCUBE 02 Apr 03:56:17 03:56:58 10° 277° (W) 03:57:22 437.505
Gurwin Techsat 1B 02 Apr 03:58:05 04:03:22 61° 101° (E) 04:08:38 435.225
BEESAT 02 Apr 03:58:08 03:59:10 10° 277° (W) 03:59:56 436.000
ISS 02 Apr 03:59:42 04:02:50 46° 210° (SSW) 04:05:56 145.825
AUBIESAT-1 02 Apr 04:08:57 04:11:26 15° 50° (NE) 04:14:07 437.475
O/OREOS (USA 219) 02 Apr 04:20:03 04:24:35 62° 112° (ESE) 04:29:10 437.305
ITAMSAT 1 02 Apr 04:25:01 04:30:13 70° 288° (WNW) 04:35:21 435.822/435.867
AO-7 02 Apr 04:28:58 04:35:32 26° 90° (E) 04:42:20 29.400- 29.500
KKS-1 02 Apr 04:34:41 04:37:43 17° 271° (W) 04:40:38 437.445
JAS-2 02 Apr 04:35:04 04:41:22 28° 86° (E) 04:47:26 435.910
M-CUBED/EXP-1 PRIME 02 Apr 04:35:36 04:39:09 26° 57° (ENE) 04:43:00 437.505
SO-50 02 Apr 04:42:12 04:45:38 18° 248° (WSW) 04:48:55 436.795
Oscar 19 02 Apr 04:50:54 04:54:28 19° 302° (WNW) 04:57:54 437.125/150
STARS 02 Apr 04:57:20 05:00:04 16° 272° (W) 05:02:39 437.465
HORYU 2 02 Apr 04:57:27 05:01:54 55° 100° (E) 05:06:21 437.375
MOZHAYETS 4 02 Apr 05:00:18 05:04:53 67° 73° (ENE) 05:09:33
GONETS M04 02 Apr 05:01:23 05:07:47 22° 53° (NE) 05:14:30
RS-15 02 Apr 05:13:03 05:23:59 52° 245° (WSW) 05:35:17 29.354- 29.394
VERMONT LUNAR 02 Apr 05:17:28 05:19:08 13° 164° (SSE) 05:20:51 437.305
AIST 1 02 Apr 05:24:29 05:28:38 39° 287° (WNW) 05:32:46
CUBESAT XI-V 02 Apr 05:24:33 05:26:55 14° 58° (ENE) 05:29:27 437.345
Gurwin Techsat 1B 02 Apr 05:38:45 05:43:00 24° 300° (WNW) 05:47:08 435.225
AUBIESAT-1 02 Apr 05:41:16 05:45:33 87° 72° (ENE) 05:50:11 437.475
O/OREOS (USA 219) 02 Apr 06:00:49 06:04:28 22° 313° (NW) 06:08:01 437.305
PRISM 02 Apr 06:03:06 06:06:22 22° 63° (ENE) 06:09:42 437.425
ITAMSAT 1 02 Apr 06:06:23 06:08:53 13° 307° (NW) 06:11:11 435.822/435.867
M-CUBED/EXP-1 PRIME 02 Apr 06:09:44 06:13:49 45° 257° (WSW) 06:18:14 437.505
STRAND 1 02 Apr 06:12:02 06:16:04 24° 61° (ENE) 06:20:12 437.568
JAS-2 02 Apr 06:19:26 06:27:14 74° 289° (WNW) 06:34:20 435.910
AO-7 02 Apr 06:21:01 06:29:22 82° 292° (WNW) 06:37:40 29.400- 29.500
CUSAT 1 02 Apr 06:30:26 06:32:51 15° 65° (ENE) 06:35:49 437.405
PHONESAT 2.4 02 Apr 06:32:14 06:34:32 17° 167° (SSE) 06:36:53 2401.200-2431.200
HORYU 2 02 Apr 06:34:50 06:38:15 21° 299° (WNW) 06:41:34 437.375
MOZHAYETS 4 02 Apr 06:39:39 06:42:40 16° 273° (W) 06:45:32
VERMONT LUNAR 02 Apr 06:53:40 06:56:07 19° 180° (S) 06:58:34 437.305
GONETS M04 02 Apr 06:57:29 07:06:22 81° 79° (ENE) 07:15:15
CUBESAT XI-V 02 Apr 06:59:01 07:03:44 88° 83° (E) 07:08:29 437.345
CUTE-I 02 Apr 07:16:56 07:21:48 35° 96° (E) 07:26:40 437.470
Cubesat XI-IV 02 Apr 07:18:22 07:23:18 37° 96° (E) 07:28:13 437.490
AUBIESAT-1 02 Apr 07:19:15 07:21:11 12° 271° (W) 07:22:57 437.475
RS-15 02 Apr 07:30:04 07:33:59 12° 266° (W) 07:36:48 29.354- 29.394
PRISM 02 Apr 07:37:34 07:41:37 44° 261° (W) 07:45:41 437.425
DANDE 02 Apr 07:44:38 07:48:33 44° 75° (ENE) 07:53:48 436.750
STRAND 1 02 Apr 07:49:53 07:54:58 58° 260° (W) 08:00:03 437.568
JAS-2 02 Apr 08:05:32 08:11:04 21° 310° (NW) 08:16:10 435.910
PHONESAT 2.4 02 Apr 08:09:32 08:12:12 20° 184° (S) 08:14:51 2401.200-2431.200
CUSAT 1 02 Apr 08:11:30 08:15:54 82° 260° (W) 08:21:50 437.405
AO-7 02 Apr 08:14:43 08:21:10 25° 314° (NW) 08:27:25 29.400- 29.500
VERMONT LUNAR 02 Apr 08:31:23 08:33:06 13° 197° (SSW) 08:34:46 437.305
BRITE-PL 02 Apr 08:38:05 08:39:50 12° 87° (E) 08:41:49 437.365/2234.400
CUBESAT XI-V 02 Apr 08:39:46 08:41:57 13° 275° (W) 08:43:53 437.345
GONETS M04 02 Apr 08:55:21 09:02:23 27° 280° (W) 09:09:09
CUTE-I 02 Apr 08:57:00 09:01:57 39° 295° (WNW) 09:06:48 437.470
Cubesat XI-IV 02 Apr 08:58:32 09:03:26 37° 295° (WNW) 09:08:16 437.490
GOMX 1 02 Apr 09:02:22 09:04:50 15° 89° (E) 09:07:34 467.674
SEEDS 02 Apr 09:04:56 09:05:52 11° 84° (E) 09:07:03 437.485
COMPASS 1 02 Apr 09:19:59 09:21:51 13° 86° (E) 09:23:53 437.405
HO-68 02 Apr 09:23:21 09:29:27 30° 92° (E) 09:35:41 435.675
DANDE 02 Apr 09:28:22 09:31:49 23° 265° (W) 09:35:56 436.750
BEESAT 2 02 Apr 09:33:53 09:36:40 18° 114° (ESE) 09:39:35 435.950
Oscar 11 02 Apr 09:47:44 09:48:44 11° 84° (E) 09:49:58 145.826/435.025
PHONESAT 2.4 02 Apr 09:48:23 09:49:47 12° 200° (SSW) 09:51:08 2401.200-2431.200
CUSAT 1 02 Apr 09:56:51 09:58:32 11° 270° (W) 10:00:02 437.405
UNISAT 6 02 Apr 10:00:31 10:03:46 22° 63° (ENE) 10:07:10 437.425
CANX-2 02 Apr 10:02:09 10:06:23 51° 99° (E) 10:10:36 2200.000
QB50P2 02 Apr 10:04:04 10:06:04 14° 59° (ENE) 10:08:14 145.880/145.840
BEESAT 3 02 Apr 10:04:29 10:08:18 39° 121° (ESE) 10:12:12 437.485
DOVE 4 02 Apr 10:07:06 10:11:17 44° 98° (E) 10:15:42 437.250
TIGRISAT 02 Apr 10:08:26 10:11:54 25° 64° (ENE) 10:15:29 435.000
BUGSAT 1 02 Apr 10:09:05 10:09:46 10° 57° (ENE) 10:10:38 437.445
BRITE-PL 02 Apr 10:14:45 10:18:58 75° 286° (WNW) 10:23:24 437.365/2234.400
CUTE 1.7 + AOD 2 02 Apr 10:15:23 10:19:41 64° 101° (E) 10:23:59 437.475
ZACube-1 02 Apr 10:20:28 10:22:37 14° 87° (E) 10:24:59 437.345
UWE-3 02 Apr 10:21:09 10:24:01 17° 89° (E) 10:27:03 435.000/436.395/437.385
AAUSAT CUBESAT 2 02 Apr 10:23:10 10:27:17 47° 99° (E) 10:31:22 437.432
POPSAT HIP 1 02 Apr 10:30:23 10:33:37 22° 64° (ENE) 10:36:56 437.405
CUBEBUG 2 02 Apr 10:34:46 10:38:32 27° 93° (E) 10:42:27 437.445
SEEDS 02 Apr 10:38:06 10:42:26 89° 264° (W) 10:46:43 437.485
NANOSAT C BR1 02 Apr 10:38:48 10:42:17 26° 65° (ENE) 10:45:51 145.865
GOMX 1 02 Apr 10:39:13 10:43:28 65° 287° (WNW) 10:47:57 467.674
ANTELSAT 02 Apr 10:40:14 10:44:22 49° 70° (ENE) 10:48:38 437.575/2403.000
POLYITAN 1 02 Apr 10:46:50 10:50:32 31° 67° (ENE) 10:54:19 437.675
CINEMA 3 02 Apr 10:51:37 10:56:04 66° 102° (ESE) 11:00:42 145.822/145.860
COMPASS 1 02 Apr 10:53:52 10:58:09 75° 286° (WNW) 11:02:23 437.405
UKube-1 02 Apr 10:54:11 10:57:14 19° 91° (E) 11:00:23 .
DX 1 02 Apr 11:09:52 11:13:36 28° 95° (E) 11:17:22 434.975-435.025
AIST 2 02 Apr 11:09:53 11:14:03 53° 123° (ESE) 11:18:15 435.215
BEESAT 2 02 Apr 11:10:18 11:14:25 64° 312° (NW) 11:18:36 435.950
HO-68 02 Apr 11:10:37 11:17:47 66° 293° (WNW) 11:24:52 435.675
DELFI C3 02 Apr 11:10:53 11:14:57 56° 100° (E) 11:18:59 145.870
DUCHIFAT 1 02 Apr 11:20:03 11:24:12 64° 73° (ENE) 11:28:23 145.980
QB50P1 02 Apr 11:20:49 11:25:00 67° 73° (ENE) 11:29:11 145.935-145.965
Oscar 11 02 Apr 11:21:16 11:25:41 89° 104° (ESE) 11:30:03 145.826/435.025
ESTCUBE 1 02 Apr 11:24:32 11:25:26 11° 84° (E) 11:26:36 437.505/2401.250
UNISAT 6 02 Apr 11:36:08 11:40:18 48° 261° (W) 11:44:34 437.425
QB50P2 02 Apr 11:37:13 11:41:26 82° 256° (WSW) 11:45:42 145.880/145.840
CANX-2 02 Apr 11:38:46 11:42:01 20° 297° (WNW) 11:45:10 2200.000
FUNcube-1 02 Apr 11:40:29 11:44:55 77° 103° (ESE) 11:49:25 145.935
BUGSAT 1 02 Apr 11:40:30 11:44:38 78° 74° (ENE) 11:48:44 437.445
BEESAT 3 02 Apr 11:42:39 11:46:26 33° 320° (NW) 11:50:13 437.485
TIGRISAT 02 Apr 11:44:25 11:48:29 41° 263° (W) 11:52:37 435.000
DOVE 4 02 Apr 11:45:23 11:48:55 24° 295° (WNW) 11:52:30 437.250
CUTE 1.7 + AOD 2 02 Apr 11:52:19 11:55:12 17° 299° (WNW) 11:57:57 437.475
CUBEBUG 1 02 Apr 11:55:05 11:58:07 19° 90° (E) 12:01:14 437.445
ZACube-1 02 Apr 11:55:09 11:59:34 76° 286° (WNW) 12:04:04 437.345
BRITE-PL 02 Apr 11:56:16 11:56:55 10° 303° (WNW) 11:57:23 437.365/2234.400
UWE-3 02 Apr 11:56:36 12:01:00 62° 287° (WNW) 12:05:29 435.000/436.395/437.385
AAUSAT CUBESAT 2 02 Apr 11:59:24 12:02:40 21° 296° (WNW) 12:05:50 437.432
YUBILEINY 02 Apr 11:59:47 12:02:16 12° 69° (ENE) 12:05:22 435.215
POPSAT HIP 1 02 Apr 12:05:16 12:09:18 43° 262° (W) 12:13:21 437.405
50 SAT 02 Apr 12:05:45 12:09:42 50° 99° (E) 12:13:40 437.505
VELOX 1 02 Apr 12:07:23 12:11:40 48° 99° (E) 12:15:57 145.980
HUMSAT D 02 Apr 12:10:47 12:15:04 84° 103° (ESE) 12:19:23 437.325/437.525
CUBEBUG 2 02 Apr 12:11:13 12:15:21 39° 291° (WNW) 12:19:35 437.445
AISAT 02 Apr 12:14:00 12:18:22 58° 101° (E) 12:22:43 437.250
NANOSAT C BR1 02 Apr 12:14:09 12:18:03 36° 263° (W) 12:21:57 145.865
SEEDS 02 Apr 12:15:41 12:17:38 13° 302° (WNW) 12:19:26 437.485
ANTELSAT 02 Apr 12:18:17 12:21:31 20° 270° (W) 12:24:42 437.575/2403.000
POLYITAN 1 02 Apr 12:22:47 12:26:30 29° 265° (W) 12:30:11 437.675
UKube-1 02 Apr 12:29:30 12:33:44 52° 290° (WNW) 12:37:56 .
CINEMA 3 02 Apr 12:29:54 12:32:55 18° 298° (WNW) 12:35:53 145.822/145.860
COMPASS 1 02 Apr 12:32:05 12:33:09 11° 303° (WNW) 12:34:02 437.405
DX 1 02 Apr 12:45:58 12:49:56 35° 293° (WNW) 12:53:51 434.975-435.025
DELFI C3 02 Apr 12:46:58 12:49:46 18° 298° (WNW) 12:52:27 145.870
O/OREOS (USA 219) 02 Apr 12:47:00 12:51:10 34° 53° (NE) 12:55:19 437.305
AIST 2 02 Apr 12:49:08 12:52:54 28° 324° (NW) 12:56:39 435.215
BEESAT 2 02 Apr 12:50:38 12:53:22 16° 334° (NNW) 12:56:03 435.950
Oscar 19 02 Apr 12:53:18 12:57:35 28° 62° (ENE) 13:01:57 437.125/150
TISAT 1 02 Apr 12:55:46 12:58:39 18° 90° (E) 13:01:38 437.305
DUCHIFAT 1 02 Apr 12:58:07 13:00:33 15° 272° (W) 13:02:49 145.980
ESTCUBE 1 02 Apr 12:58:36 13:03:09 85° 104° (ESE) 13:07:40 437.505/2401.250
QB50P1 02 Apr 12:59:04 13:01:24 14° 272° (W) 13:03:35 145.935-145.965
Oscar 11 02 Apr 12:59:07 13:01:17 13° 302° (WNW) 13:03:16 145.826/435.025
HO-68 02 Apr 12:59:42 13:04:20 18° 314° (NW) 13:08:46 435.675
FUNcube-1 02 Apr 13:18:08 13:20:46 15° 300° (WNW) 13:23:18 145.935
BUGSAT 1 02 Apr 13:19:09 13:20:43 12° 273° (W) 13:22:05 437.445
SPROUT 02 Apr 13:22:00 13:26:02 39° 97° (E) 13:30:05 437.525
BEESAT 3 02 Apr 13:24:08 13:25:42 12° 343° (NNW) 13:27:13 437.485
CUBEBUG 1 02 Apr 13:30:37 13:34:51 52° 289° (WNW) 13:39:02 437.445
ZACube-1 02 Apr 13:33:44 13:35:17 11° 303° (WNW) 13:36:40 437.345
50 SAT 02 Apr 13:41:23 13:44:18 19° 297° (WNW) 13:47:08 437.505
AO-7 02 Apr 13:44:11 13:48:54 17° 37° (NE) 13:53:51 29.400- 29.500
VELOX 1 02 Apr 13:44:33 13:48:00 22° 297° (WNW) 13:51:22 145.980
Gurwin Techsat 1B 02 Apr 13:44:58 13:49:07 24° 60° (ENE) 13:53:23 435.225
HUMSAT D 02 Apr 13:48:06 13:50:18 14° 301° (WNW) 13:52:22 437.325/437.525
YUBILEINY 02 Apr 13:48:45 13:57:12 55° 90° (E) 14:05:46 435.215
AISAT 02 Apr 13:51:26 13:54:38 19° 299° (WNW) 13:57:43 437.250
AIST 1 02 Apr 13:52:38 13:52:53 10° 58° (ENE) 13:53:21
ITAMSAT 1 02 Apr 14:08:07 14:13:00 42° 67° (ENE) 14:17:55 435.822/435.867
SWISSCUBE 02 Apr 14:10:20 14:13:55 21° 90° (E) 14:17:36 437.505
BEESAT 02 Apr 14:12:30 14:16:02 21° 90° (E) 14:19:40 436.000
PCSat 02 Apr 14:20:26 14:25:15 35° 114° (ESE) 14:30:10 145.827
HORYU 2 02 Apr 14:26:13 14:28:05 13° 56° (NE) 14:30:07 437.375
O/OREOS (USA 219) 02 Apr 14:26:28 14:30:36 34° 253° (WSW) 14:34:39 437.305
TISAT 1 02 Apr 14:30:42 14:34:47 51° 289° (WNW) 14:38:51 437.305
AIST 2 02 Apr 14:31:24 14:32:53 11° 347° (NNW) 14:34:18 435.215
Oscar 19 02 Apr 14:31:47 14:36:44 48° 261° (W) 14:41:44 437.125/150
ESTCUBE 1 02 Apr 14:36:55 14:39:27 15° 302° (WNW) 14:41:50 437.505/2401.250
JAS-2 02 Apr 14:51:43 14:57:12 23° 52° (NE) 15:03:05 435.910
SPROUT 02 Apr 14:58:26 15:01:59 25° 295° (WNW) 15:05:27 437.525
ITUPSAT 1 02 Apr 15:01:37 15:06:21 55° 100° (E) 15:11:03 437.325
Gurwin Techsat 1B 02 Apr 15:23:30 15:28:45 60° 259° (W) 15:34:03 435.225
AIST 1 02 Apr 15:27:07 15:31:27 79° 79° (E) 15:35:44
AO-7 02 Apr 15:32:05 15:40:00 53° 60° (ENE) 15:47:59 29.400- 29.500
YUBILEINY 02 Apr 15:46:08 15:54:25 41° 294° (WNW) 16:02:39 435.215
SWISSCUBE 02 Apr 15:47:28 15:52:10 54° 290° (WNW) 15:56:48 437.505
ITAMSAT 1 02 Apr 15:48:00 15:52:39 31° 266° (W) 15:57:15 435.822/435.867
BEESAT 02 Apr 15:49:35 15:54:18 56° 289° (WNW) 15:58:57 436.000
HORYU 2 02 Apr 15:59:38 16:04:05 83° 73° (ENE) 16:08:35 437.375
PCSat 02 Apr 16:03:19 16:08:34 48° 313° (NW) 16:13:51 145.827
BEESAT 2 02 Apr 16:10:59 16:13:07 14° 21° (NNE) 16:15:18 435.950
AIST 2 02 Apr 16:12:16 16:13:20 11° 11° (N) 16:14:26 435.215
KKS-1 02 Apr 16:19:45 16:24:13 68° 103° (ESE) 16:28:40 437.445
JAS-2 02 Apr 16:33:53 16:41:10 81° 73° (ENE) 16:49:03 435.910
ITUPSAT 1 02 Apr 16:40:10 16:43:56 23° 299° (WNW) 16:47:37 437.325
STARS 02 Apr 16:40:45 16:45:11 73° 103° (ESE) 16:49:35 437.465
BEESAT 3 02 Apr 16:42:08 16:45:11 20° 30° (NNE) 16:48:16 437.485
MOZHAYETS 4 02 Apr 16:53:18 16:55:08 12° 84° (E) 16:57:12
CUTE-I 02 Apr 17:05:39 17:08:47 16° 55° (NE) 17:12:05 437.470
AIST 1 02 Apr 17:06:55 17:08:31 12° 277° (W) 17:09:55
Cubesat XI-IV 02 Apr 17:07:07 17:10:22 17° 55° (NE) 17:13:48 437.490
AO-7 02 Apr 17:25:08 17:33:01 45° 262° (W) 17:40:51 29.400- 29.500
RS-15 02 Apr 17:34:09 17:40:40 19° 99° (E) 17:47:53 29.354- 29.394
HORYU 2 02 Apr 17:39:28 17:41:28 12° 274° (W) 17:43:15 437.375
BEESAT 2 02 Apr 17:48:17 17:52:18 44° 44° (NE) 17:56:16 435.950
M-CUBED/EXP-1 PRIME 02 Apr 17:49:27 17:51:06 12° 89° (E) 17:53:00 437.505
AIST 2 02 Apr 17:49:51 17:53:24 25° 34° (NE) 17:56:58 435.215
PCSat 02 Apr 17:49:55 17:53:22 17° 337° (NNW) 17:56:45 145.827
YUBILEINY 02 Apr 17:52:08 17:54:36 11° 322° (NW) 17:56:35 435.215
KKS-1 02 Apr 17:57:29 18:00:25 17° 300° (WNW) 18:03:14 437.445
GONETS M04 02 Apr 18:10:48 18:16:11 19° 75° (ENE) 18:22:00
HO-68 02 Apr 18:16:11 18:16:53 10° 35° (NE) 18:17:53 435.675
STARS 02 Apr 18:18:25 18:21:11 16° 301° (WNW) 18:23:48 437.465
BEESAT 3 02 Apr 18:19:39 18:23:49 89° 239° (WSW) 18:27:54 437.485
JAS-2 02 Apr 18:21:11 18:27:10 25° 275° (W) 18:33:16 435.910
MOZHAYETS 4 02 Apr 18:28:27 18:33:09 88° 285° (WNW) 18:37:47
CUTE-I 02 Apr 18:42:48 18:48:10 84° 74° (ENE) 18:53:34 437.470
Cubesat XI-IV 02 Apr 18:44:26 18:49:49 87° 78° (ENE) 18:55:14 437.490
CUBESAT XI-V 02 Apr 18:52:49 18:55:44 17° 88° (E) 18:58:48 437.345
AUBIESAT-1 02 Apr 18:53:28 18:58:01 40° 102° (ESE) 19:02:27 437.475
SO-50 02 Apr 18:58:52 19:03:27 60° 124° (SE) 19:08:14 436.795
PRISM 02 Apr 19:16:43 19:19:42 19° 91° (E) 19:22:45 437.425
M-CUBED/EXP-1 PRIME 02 Apr 19:21:57 19:26:51 79° 109° (ESE) 19:31:36 437.505
BEESAT 2 02 Apr 19:26:45 19:30:17 27° 243° (WSW) 19:33:42 435.950
AIST 2 02 Apr 19:28:08 19:32:23 65° 235° (SW) 19:36:33 435.215
PCSat 02 Apr 19:37:18 19:39:07 12° 3° (N) 19:40:58 145.827
CUTE 1.7 + AOD 2 02 Apr 19:40:05 19:41:05 11° 57° (ENE) 19:42:16 437.475
RS-15 02 Apr 19:40:22 19:51:08 72° 122° (ESE) 20:02:13 29.354- 29.394
BRITE-PL 02 Apr 19:52:36 19:56:06 24° 65° (ENE) 19:59:32 437.365/2234.400
HO-68 02 Apr 19:56:21 20:02:41 36° 58° (ENE) 20:09:08 435.675
STRAND 1 02 Apr 19:56:21 20:01:01 35° 95° (E) 20:05:42 437.568
BEESAT 3 02 Apr 19:59:35 20:01:16 12° 249° (WSW) 20:02:47 437.485
SEEDS 02 Apr 20:00:44 20:02:57 14° 60° (ENE) 20:05:21 437.485
GONETS M04 02 Apr 20:03:03 20:11:44 80° 97° (E) 20:20:33
MOZHAYETS 4 02 Apr 20:07:16 20:09:44 14° 303° (WNW) 20:12:02
GOMX 1 02 Apr 20:14:40 20:18:09 25° 66° (ENE) 20:21:38 467.674
COMPASS 1 02 Apr 20:15:20 20:17:55 16° 61° (ENE) 20:20:38 437.405
CINEMA 3 02 Apr 20:23:37 20:25:18 13° 58° (ENE) 20:27:10 145.822/145.860
CUTE-I 02 Apr 20:25:43 20:29:02 16° 274° (W) 20:32:10 437.470
Cubesat XI-IV 02 Apr 20:27:33 20:30:45 15° 274° (W) 20:33:43 437.490
AUBIESAT-1 02 Apr 20:28:23 20:32:43 33° 301° (WNW) 20:36:54 437.475
CUBESAT XI-V 02 Apr 20:29:06 20:33:43 65° 288° (WNW) 20:38:17 437.345
SO-50 02 Apr 20:40:08 20:44:22 30° 326° (NW) 20:48:40 436.795
Oscar 11 02 Apr 20:45:57 20:48:29 16° 60° (ENE) 20:51:10 145.826/435.025
PRISM 02 Apr 20:51:26 20:55:29 47° 290° (WNW) 20:59:28 437.425
M-CUBED/EXP-1 PRIME 02 Apr 20:57:44 21:01:11 19° 307° (NW) 21:04:30 437.505
CANX-2 02 Apr 20:58:56 21:03:08 61° 73° (ENE) 21:07:23 2200.000
DANDE 02 Apr 21:04:33 21:06:48 24° 96° (E) 21:09:01 436.750
FUNcube-1 02 Apr 21:06:54 21:08:47 13° 59° (ENE) 21:10:51 145.935
CUTE 1.7 + AOD 2 02 Apr 21:12:04 21:16:18 76° 75° (ENE) 21:20:37 437.475
DOVE 4 02 Apr 21:17:09 21:21:21 70° 74° (ENE) 21:25:30 437.250
AAUSAT CUBESAT 2 02 Apr 21:17:53 21:21:58 54° 72° (ENE) 21:26:06 437.432
ZACube-1 02 Apr 21:20:42 21:23:27 18° 62° (ENE) 21:26:20 437.345
PCSat 02 Apr 21:20:45 21:24:43 20° 29° (NNE) 21:28:47 145.827
UWE-3 02 Apr 21:22:41 21:25:50 22° 64° (ENE) 21:29:06 435.000/436.395/437.385
CUSAT 1 02 Apr 21:27:13 21:29:49 89° 103° (ESE) 21:32:32 437.405
BRITE-PL 02 Apr 21:30:17 21:34:32 41° 262° (W) 21:38:34 437.365/2234.400
HUMSAT D 02 Apr 21:33:39 21:35:30 13° 59° (ENE) 21:37:31 437.325/437.525
SEEDS 02 Apr 21:34:01 21:38:15 77° 257° (WSW) 21:42:33 437.485
STRAND 1 02 Apr 21:35:35 21:40:16 37° 295° (WNW) 21:44:54 437.568
VELOX 1 02 Apr 21:36:17 21:37:26 11° 55° (NE) 21:38:47 145.980
CUBEBUG 2 02 Apr 21:37:21 21:41:06 34° 68° (ENE) 21:44:56 437.445
AISAT 02 Apr 21:42:18 21:44:12 13° 57° (ENE) 21:46:16 437.250
HO-68 02 Apr 21:43:06 21:50:10 59° 258° (WSW) 21:57:17 435.675
COMPASS 1 02 Apr 21:49:01 21:53:11 65° 259° (W) 21:57:25 437.405
GOMX 1 02 Apr 21:52:13 21:56:14 36° 263° (W) 22:00:07 467.674
UKube-1 02 Apr 21:52:52 21:56:33 28° 65° (ENE) 22:00:17 .
RS-15 02 Apr 21:53:42 22:04:17 50° 330° (NNW) 22:15:12 29.354- 29.394
CINEMA 3 02 Apr 21:57:48 22:01:58 85° 253° (WSW) 22:06:10 145.822/145.860
GONETS M04 02 Apr 22:02:20 22:09:44 29° 301° (WNW) 22:16:59
DELFI C3 02 Apr 22:02:22 22:06:24 60° 73° (ENE) 22:10:28 145.870
DX 1 02 Apr 22:09:15 22:13:20 41° 68° (ENE) 22:17:28 434.975-435.025
CUBESAT XI-V 02 Apr 22:09:22 22:10:20 10° 306° (NW) 22:11:06 437.345
ISS 02 Apr 22:17:07 22:20:00 29° 146° (SE) 22:22:54 145.825
Oscar 11 02 Apr 22:19:52 22:24:11 72° 258° (WSW) 22:28:33 145.826/435.025
SO-50 02 Apr 22:23:47 22:26:26 14° 350° (N) 22:29:02 436.795
ESTCUBE 1 02 Apr 22:27:10 22:30:13 18° 60° (ENE) 22:33:23 437.505/2401.250
CANX-2 02 Apr 22:36:52 22:39:33 16° 272° (W) 22:42:05 2200.000
FUNcube-1 02 Apr 22:40:25 22:44:34 82° 257° (WSW) 22:48:48 145.935
DANDE 02 Apr 22:49:46 22:50:15 10° 296° (WNW) 22:50:37 436.750
CUTE 1.7 + AOD 2 02 Apr 22:50:51 22:52:52 13° 274° (W) 22:54:42 437.475
CUBEBUG 1 02 Apr 22:55:04 22:58:45 27° 65° (ENE) 23:02:29 437.445
AAUSAT CUBESAT 2 02 Apr 22:55:07 22:57:59 17° 271° (W) 23:00:45 437.432
ZACube-1 02 Apr 22:55:23 22:59:28 57° 260° (W) 23:03:39 437.345
50 SAT 02 Apr 22:55:36 22:59:23 51° 72° (ENE) 23:03:15 437.505
DOVE 4 02 Apr 22:57:42 22:59:43 13° 273° (W) 23:01:32 437.250
UWE-3 02 Apr 22:58:11 23:02:09 43° 262° (W) 23:06:12 435.000/436.395/437.385
PCSat 02 Apr 23:03:43 23:09:10 70° 52° (NE) 23:14:35 145.827
HUMSAT D 02 Apr 23:06:36 23:10:43 82° 255° (WSW) 23:14:54 437.325/437.525
VELOX 1 02 Apr 23:08:52 23:13:17 72° 73° (ENE) 23:17:43 145.980
CUBEBUG 2 02 Apr 23:14:24 23:17:55 26° 267° (W) 23:21:26 437.445
AISAT 02 Apr 23:15:45 23:20:11 86° 75° (ENE) 23:24:38 437.250
QB50P2 02 Apr 23:20:20 23:22:05 13° 86° (E) 23:24:03 145.880/145.840
UNISAT 6 02 Apr 23:23:56 23:27:50 27° 93° (E) 23:31:50 437.425
UKube-1 02 Apr 23:28:36 23:32:37 35° 263° (W) 23:36:37 .
TIGRISAT 02 Apr 23:31:42 23:35:45 31° 95° (E) 23:39:55 435.000
HO-68 02 Apr 23:37:24 23:39:43 11° 281° (W) 23:41:30 435.675
DELFI C3 02 Apr 23:39:34 23:42:01 15° 272° (W) 23:44:20 145.870
DX 1 02 Apr 23:46:12 23:49:47 24° 267° (W) 23:53:17 434.975-435.025
POPSAT HIP 1 02 Apr 23:46:45 23:50:04 22° 92° (E) 23:53:28 437.405
TISAT 1 02 Apr 23:51:58 23:55:20 24° 65° (ENE) 23:58:47 437.305
ISS 02 Apr 23:52:58 23:56:13 74° 343° (NNW) 23:59:29 145.825
YUBILEINY 02 Apr 23:53:41 00:01:31 35° 63° (ENE) 00:09:25 435.215
NANOSAT C BR1 02 Apr 23:55:02 23:58:37 27° 94° (E) 00:02:15 145.865
ESTCUBE 1 03 Apr 00:02:09 00:06:41 65° 258° (WSW) 00:11:13 437.505/2401.250
POLYITAN 1 03 Apr 00:03:43 00:07:35 33° 96° (E) 00:11:28 437.675
ANTELSAT 03 Apr 00:04:22 00:08:58 63° 102° (ESE) 00:13:38 437.575/2403.000
SO-50 03 Apr 00:06:03 00:08:54 15° 14° (NNE) 00:11:48 436.795
RS-15 03 Apr 00:09:49 00:19:50 36° 3° (N) 00:30:15 29.354- 29.394
SPROUT 03 Apr 00:20:00 00:24:09 51° 71° (ENE) 00:28:20 437.525
CUBEBUG 1 03 Apr 00:30:54 00:35:01 37° 263° (W) 00:39:06 437.445
50 SAT 03 Apr 00:32:07 00:34:39 16° 271° (W) 00:37:06 437.505
DUCHIFAT 1 03 Apr 00:36:31 00:40:44 69° 102° (ESE) 00:44:58 145.980
ITUPSAT 1 03 Apr 00:36:59 00:39:52 16° 58° (ENE) 00:42:54 437.325
QB50P1 03 Apr 00:37:40 00:41:54 72° 102° (ESE) 00:46:09 145.935-145.965
VELOX 1 03 Apr 00:47:57 00:50:26 14° 273° (W) 00:52:45 145.980
PCSat 03 Apr 00:47:57 00:52:09 22° 251° (WSW) 00:56:11 145.827
BUGSAT 1 03 Apr 00:54:09 00:58:12 77° 103° (ESE) 01:02:15 437.445
QB50P2 03 Apr 00:54:21 00:58:36 77° 286° (WNW) 01:02:51 145.880/145.840
AISAT 03 Apr 00:55:45 00:57:31 12° 274° (W) 00:59:03 437.250
UNISAT 6 03 Apr 01:00:26 01:04:46 41° 291° (WNW) 01:09:08 437.425
TIGRISAT 03 Apr 01:08:22 01:12:34 36° 293° (WNW) 01:16:47 435.000
SWISSCUBE 03 Apr 01:20:37 01:25:03 39° 67° (ENE) 01:29:31 437.505
POPSAT HIP 1 03 Apr 01:22:09 01:26:10 42° 291° (WNW) 01:30:10 437.405
BEESAT 03 Apr 01:22:42 01:27:05 37° 67° (ENE) 01:31:32 436.000
TISAT 1 03 Apr 01:27:01 01:30:59 39° 263° (W) 01:34:57 437.305
ISS 03 Apr 01:29:38 01:32:50 52° 4° (N) 01:36:02 145.825
NANOSAT C BR1 03 Apr 01:30:42 01:34:34 35° 292° (WNW) 01:38:24 145.865
POLYITAN 1 03 Apr 01:39:46 01:43:28 29° 294° (WNW) 01:47:07 437.675
ANTELSAT 03 Apr 01:42:03 01:45:22 19° 299° (WNW) 01:48:37 437.575/2403.000
SO-50 03 Apr 01:46:19 01:50:52 35° 37° (NE) 01:55:25 436.795
KKS-1 03 Apr 01:47:45 01:50:10 15° 58° (ENE) 01:52:43 437.445
YUBILEINY 03 Apr 01:50:21 01:59:05 66° 267° (W) 02:07:42 435.215
SPROUT 03 Apr 01:57:29 02:00:35 19° 270° (W) 02:03:35 437.525
STARS 03 Apr 02:07:36 02:10:02 15° 59° (ENE) 02:12:37 437.465
ITUPSAT 1 03 Apr 02:12:22 02:17:12 83° 256° (WSW) 02:22:04 437.325
DUCHIFAT 1 03 Apr 02:13:32 02:16:08 16° 300° (WNW) 02:18:36 145.980
QB50P1 03 Apr 02:14:48 02:17:19 15° 300° (WNW) 02:19:43 145.935-145.965
ITAMSAT 1 03 Apr 02:20:19 02:20:21 10° 82° (E) 02:20:42 435.822/435.867
RS-15 03 Apr 02:24:09 02:35:13 55° 34° (NE) 02:46:48 29.354- 29.394
BUGSAT 1 03 Apr 02:31:11 02:33:12 13° 301° (WNW) 02:35:04 437.445
QB50P2 03 Apr 02:32:39 02:33:50 11° 304° (WNW) 02:34:51 145.880/145.840
Oscar 19 03 Apr 02:38:55 02:43:52 44° 98° (E) 02:48:50 437.125/150
SWISSCUBE 03 Apr 02:58:44 03:03:00 30° 266° (W) 03:07:14 437.505
BEESAT 03 Apr 03:00:43 03:05:01 31° 265° (W) 03:09:16 436.000
O/OREOS (USA 219) 03 Apr 03:04:49 03:07:40 17° 101° (ESE) 03:10:41 437.305
ISS 03 Apr 03:06:06 03:09:21 72° 203° (SSW) 03:12:35 145.825
